Regional Weather Roundup
Issued by NWS

Home | Current Version | Previous Version | Text Only | Print | Product List | Glossary On
Versions: 1 2 3 4 5 6 7 8 9 10 11 12 13 14 15 16 17 18 19 20 21 22 23 24 25 26 27 28 29 30 31 32 33 34 35 36 37 38 39 40 41 42 43 44 45 46 47 48 49 50
000
ASUS44 KJAN 040410
RWRMS

MISSISSIPPI HOURLY WEATHER ROUNDUP
NATIONAL WEATHER SERVICE JACKSON MS
1000 PM CST TUE MAR 03 2015

NOTE: "FAIR: INDICATES FEW OR NO CLOUDS BELOW 12,000 FEET WITH NO
SIGNIFICANT WEATHER AND/OR OBSTRUCTIONS TO VISIBILITY.

MSZ001>002-007>008-010>013-018>021-025>028-034>036-040500-
NORTHWEST MISSISSIPPI

CITY           SKY/WX    TMP DP  RH WIND       PRES   REMARKS
CLARKSDALE     FAIR      57  57 100 S12       29.91F
CLEVELAND      FAIR      60  60 100 S7        29.92S
GREENWOOD      CLOUDY    66  65  96 SW6       29.95S
GREENVILLE     CLEAR     64  61  90 S10       29.92S
OLIVE BRANCH   CLOUDY    59 N/A N/A S9        29.90S
OXFORD         MOCLDY    64  64 100 S8G16     29.95S
TUNICA         FOG       57  57 100 S10       29.90S VSB 1
$$

MSZ003>006-009-014>017-022>024-029>033-037>039-040500-
NORTHEAST MISSISSIPPI

CITY           SKY/WX    TMP DP  RH WIND       PRES   REMARKS
COLUMBUS AFB   MOCLDY    66  64  94 S13       29.97S
CORINTH        CLOUDY    66  63  88 S8        29.93R
GOLDN TRIANGLE MOCLDY    66  63  88 S13       29.98S
STARKVILLE     HVY RAIN  64  64 100 S8        29.98S
TUPELO         CLOUDY    66  63  90 SW10      29.95S
$$

MSZ040-058-040500-
CENTRAL MISSISSIPPI

CITY           SKY/WX    TMP DP  RH WIND       PRES   REMARKS
JACKSON INTL   MOCLDY    68  66  93 S13       29.98S
JACKSON HAWKNS CLOUDY    68  65  90 S10       29.99R
MERIDIAN KEY   CLOUDY    67  63  87 S15       30.02S
MERIDIAN NAS   CLOUDY    68  63  84 S10G21    30.02S
VICKSBURG      CLOUDY    66  64  93 S7        29.97R
$$

MSZ059>079-040500-
SOUTH MISSISSIPPI

CITY           SKY/WX    TMP DP  RH WIND       PRES   REMARKS
BROOKHAVEN       N/A     66  66 100 S6        30.02S
HATTIESBURG    CLOUDY    69  65  86 S9        30.04R
MCCOMB         CLOUDY    67  65  93 S7        30.01S
NATCHEZ        MOCLDY    68  64  88 S8        29.99R
PINE BELT      CLOUDY    68  63  83 S9        30.05S
$$

MSZ080>082-040500-
COASTAL MISSISSIPPI

CITY           SKY/WX    TMP DP  RH WIND       PRES   REMARKS
BILOXI         CLOUDY    67  67 100 SE9       30.04S
PASCAGOULA     CLOUDY    65  64  97 SE10      30.05F
GULFPORT       FOG       64  63  96 SE12      30.04S VSB 1
$$


USA.gov is the U.S. government's official web portal to all federal, state and local government web resources and services.